TimeEST,TemperatureF,Dew PointF,Humidity,Sea Level PressureIn,VisibilityMPH,Wind Direction,Wind SpeedMPH,Gust SpeedMPH,PrecipitationIn,Events,Conditions,WindDirDegrees,DateUTC
12:15 AM,46.4,41.0,81,30.24,10.0,North,11.5,20.7,0.02,,Overcast,10,2013-01-15 05:15:00
12:35 AM,44.6,41.0,87,30.25,10.0,North,15.0,18.4,0.06,,Overcast,360,2013-01-15 05:35:00
12:55 AM,44.6,39.2,81,30.24,10.0,NNE,13.8,18.4,0.09,,Overcast,30,2013-01-15 05:55:00
1:15 AM,42.8,39.2,87,30.24,10.0,North,5.8,-,0.05,,Overcast,360,2013-01-15 06:15:00
1:35 AM,42.8,39.2,87,30.25,9.0,North,6.9,-,0.07,,Overcast,350,2013-01-15 06:35:00
1:55 AM,42.8,37.4,81,30.25,10.0,North,13.8,18.4,0.09,,Overcast,10,2013-01-15 06:55:00
2:15 AM,42.8,37.4,81,30.26,9.0,North,5.8,-,0.02,,Overcast,350,2013-01-15 07:15:00
2:35 AM,41.0,37.4,87,30.26,8.0,ENE,4.6,-,0.03,,Overcast,60,2013-01-15 07:35:00
2:55 AM,41.0,37.4,87,30.25,10.0,NE,9.2,-,0.03,,Overcast,40,2013-01-15 07:55:00
3:15 AM,41.0,37.4,87,30.26,8.0,ENE,3.5,-,0.01,,Overcast,70,2013-01-15 08:15:00
3:35 AM,39.2,35.6,87,30.23,7.0,East,8.1,-,0.07,,Overcast,90,2013-01-15 08:35:00
3:55 AM,39.2,37.4,93,30.21,10.0,East,8.1,-,0.07,,Mostly Cloudy,90,2013-01-15 08:55:00
4:15 AM,41.0,37.4,87,30.21,10.0,East,8.1,-,0.01,,Overcast,90,2013-01-15 09:15:00
4:35 AM,41.0,37.4,87,30.20,10.0,East,8.1,-,0.02,,Overcast,80,2013-01-15 09:35:00
4:55 AM,42.8,39.2,87,30.22,10.0,NE,5.8,-,0.02,,Overcast,40,2013-01-15 09:55:00
5:15 AM,42.8,37.4,81,30.21,10.0,NE,6.9,-,N/A,,Overcast,50,2013-01-15 10:15:00
5:55 AM,41.0,37.4,87,30.24,10.0,North,9.2,-,N/A,,Overcast,360,2013-01-15 10:55:00
6:15 AM,41.0,37.4,87,30.25,10.0,North,8.1,-,N/A,,Overcast,350,2013-01-15 11:15:00
6:35 AM,39.2,37.4,93,30.24,10.0,NNE,6.9,-,N/A,,Overcast,20,2013-01-15 11:35:00
6:55 AM,39.2,37.4,93,30.26,10.0,North,11.5,-,N/A,,Overcast,360,2013-01-15 11:55:00
7:15 AM,39.2,37.4,93,30.25,10.0,North,8.1,-,N/A,,Overcast,10,2013-01-15 12:15:00
7:35 AM,39.2,37.4,93,30.27,8.0,North,6.9,-,N/A,,Overcast,10,2013-01-15 12:35:00
7:55 AM,39.2,35.6,87,30.29,4.0,North,10.4,-,N/A,,Overcast,360,2013-01-15 12:55:00
8:15 AM,39.2,37.4,93,30.29,3.0,ENE,5.8,-,N/A,,Overcast,60,2013-01-15 13:15:00
8:35 AM,39.2,35.6,87,30.31,5.0,North,5.8,-,N/A,,Overcast,360,2013-01-15 13:35:00
8:55 AM,39.2,37.4,93,30.30,1.5,NNE,8.1,-,0.01,,Overcast,20,2013-01-15 13:55:00
9:15 AM,39.2,37.4,93,30.33,3.0,NNW,6.9,-,0.01,,Overcast,340,2013-01-15 14:15:00
9:35 AM,39.2,35.6,87,30.31,5.0,North,6.9,-,0.01,,Overcast,10,2013-01-15 14:35:00
9:55 AM,39.2,35.6,87,30.33,10.0,North,8.1,-,0.01,,Overcast,10,2013-01-15 14:55:00
10:15 AM,39.2,35.6,87,30.30,7.0,NE,6.9,-,N/A,,Overcast,40,2013-01-15 15:15:00
10:35 AM,39.2,35.6,87,30.32,10.0,North,10.4,-,N/A,,Overcast,10,2013-01-15 15:35:00
10:55 AM,39.2,35.6,87,30.32,9.0,NNE,9.2,-,N/A,,Overcast,20,2013-01-15 15:55:00
11:15 AM,39.2,35.6,87,30.30,3.0,NE,8.1,-,N/A,,Overcast,40,2013-01-15 16:15:00
11:35 AM,39.2,35.6,87,30.31,9.0,North,5.8,-,N/A,,Overcast,350,2013-01-15 16:35:00
11:55 AM,39.2,35.6,87,30.32,9.0,North,6.9,-,N/A,,Overcast,10,2013-01-15 16:55:00
12:15 PM,39.2,35.6,87,30.28,8.0,NE,10.4,-,0.02,,Overcast,40,2013-01-15 17:15:00
12:35 PM,39.2,35.6,87,30.28,8.0,NE,8.1,-,0.02,,Overcast,40,2013-01-15 17:35:00
12:55 PM,39.2,35.6,87,30.27,10.0,North,6.9,-,0.03,,Overcast,10,2013-01-15 17:55:00
1:15 PM,37.4,35.6,93,30.25,9.0,ENE,8.1,-,0.01,,Overcast,70,2013-01-15 18:15:00
1:35 PM,39.2,35.6,87,30.28,8.0,North,6.9,-,0.02,,Overcast,10,2013-01-15 18:35:00
1:55 PM,37.4,35.6,93,30.26,7.0,NE,8.1,-,0.03,,Mostly Cloudy,50,2013-01-15 18:55:00
2:35 PM,37.4,35.6,93,30.27,8.0,North,9.2,-,0.01,,Overcast,10,2013-01-15 19:35:00
2:55 PM,37.4,33.8,87,30.26,8.0,NNE,8.1,-,0.03,,Overcast,20,2013-01-15 19:55:00
3:15 PM,37.4,35.6,93,30.27,7.0,Calm,Calm,-,N/A,,Overcast,0,2013-01-15 20:15:00
3:35 PM,37.4,35.6,93,30.27,5.0,North,4.6,-,0.01,,Overcast,360,2013-01-15 20:35:00
3:55 PM,37.4,35.6,93,30.25,5.0,NNE,5.8,-,0.01,,Overcast,30,2013-01-15 20:55:00
4:15 PM,37.4,35.6,93,30.24,5.0,NE,4.6,-,N/A,,Overcast,50,2013-01-15 21:15:00
4:35 PM,37.4,35.6,93,30.25,4.0,East,4.6,-,N/A,,Overcast,80,2013-01-15 21:35:00
4:55 PM,37.4,35.6,93,30.25,4.0,NNE,4.6,-,0.01,,Overcast,30,2013-01-15 21:55:00
5:15 PM,37.4,35.6,93,30.26,7.0,North,4.6,-,N/A,,Overcast,360,2013-01-15 22:15:00
5:35 PM,37.4,35.6,93,30.27,6.0,Calm,Calm,-,N/A,,Overcast,0,2013-01-15 22:35:00
5:55 PM,37.4,35.6,93,30.25,7.0,North,6.9,-,N/A,,Overcast,10,2013-01-15 22:55:00
6:35 PM,37.4,35.6,93,30.27,6.0,North,5.8,-,N/A,,Overcast,350,2013-01-15 23:35:00
6:55 PM,37.4,35.6,93,30.22,5.0,East,8.1,-,0.01,,Overcast,90,2013-01-15 23:55:00
7:15 PM,37.4,35.6,93,30.24,6.0,North,3.5,-,N/A,,Mostly Cloudy,10,2013-01-16 00:15:00
7:35 PM,37.4,33.8,87,30.25,5.0,North,6.9,-,N/A,,Overcast,350,2013-01-16 00:35:00
7:55 PM,37.4,33.8,87,30.25,5.0,North,6.9,-,N/A,,Overcast,350,2013-01-16 00:55:00
8:15 PM,37.4,33.8,87,30.25,5.0,North,6.9,-,N/A,,Overcast,10,2013-01-16 01:15:00
8:35 PM,37.4,33.8,87,30.24,7.0,North,6.9,-,0.01,,Overcast,360,2013-01-16 01:35:00
8:55 PM,37.4,33.8,87,30.23,9.0,North,9.2,-,0.02,,Overcast,10,2013-01-16 01:55:00
9:15 PM,37.4,33.8,87,30.23,10.0,North,8.1,-,N/A,,Overcast,10,2013-01-16 02:15:00
9:35 PM,37.4,33.8,87,30.22,10.0,NNE,9.2,-,0.01,,Overcast,20,2013-01-16 02:35:00
9:55 PM,37.4,33.8,87,30.20,9.0,NE,9.2,-,0.03,,Overcast,40,2013-01-16 02:55:00
10:15 PM,37.4,33.8,87,30.20,9.0,NE,8.1,-,0.01,,Overcast,40,2013-01-16 03:15:00
10:35 PM,37.4,32.0,81,30.19,10.0,NNE,8.1,-,0.03,,Overcast,30,2013-01-16 03:35:00
10:55 PM,37.4,33.8,87,30.19,9.0,North,9.2,-,0.07,,Overcast,10,2013-01-16 03:55:00
11:15 PM,37.4,33.8,87,30.16,7.0,NNE,10.4,-,0.03,,Overcast,30,2013-01-16 04:15:00
11:35 PM,35.6,33.8,93,30.15,5.0,NNE,10.4,-,0.05,,Overcast,20,2013-01-16 04:35:00
11:55 PM,37.4,33.8,87,30.14,5.0,NNE,9.2,-,0.06,,Overcast,30,2013-01-16 04:55:00